Location: Newark
(13.8117°N, 3.6025°W)
Time: 10:17:52
(UTC+00:00)

Explorer 11/Cluster Stage 4 - Pass Details

Date: 25 August 2019
Orbit: 467 x 1260 km, 28.8° (Epoch: 19 September)

Event Time Altitude Azimuth Distance (km) Brightness Sun altitude
Rises 05:30:44 0° 206° (SSW) 3,198 9.3 -8.3°
Reaches altitude 10° 05:33:40 10° 189° (S) 2,421 8.9 -7.6°
Maximum altitude 05:37:51 20° 143° (SE) 1,998 9.0 -6.7°
Drops below altitude 10° 05:42:40 10° 99° (E) 2,834 10.8 -5.5°
Sets 05:46:26 0° 84° (E) 3,931 12.9 -4.6°
